Weather History for PHNG - May, 2013

Change the Weather History Date:

Monday, May 27, 2013

  Actual Average Record
Temperature  
Mean Temperature 81 °F -  
Max Temperature 87 °F 78 °F 87 °F (2013)
Min Temperature 75 °F 70 °F 64 °F (1997)
Cooling Degree Days 16    
Growing Degree Days 31 (Base 50)    
Moisture  
Dew Point 67 °F    
Average Humidity 66    
Maximum Humidity 81    
Minimum Humidity 52    
Precipitation  
Precipitation 0.00 in - - ()
Sea Level Pressure  
Sea Level Pressure 30.09 in    
Wind  
Wind Speed 9 mph (ENE)    
Max Wind Speed 13 mph    
Max Gust Speed 21 mph    
Visibility 9 miles    
Events Rain    
Averages and records for this station are not official NWS values.
T = Trace of Precipitation, MM = Missing Value Source: NWS Daily Summary

Daily Weather History Graph

Daily Weather History Graph

Search for Another Location

Airport or City:

Trip Planner

Search our weather history database for the weather conditions in past years. The results will help you decide how hot, cold, wet, or windy it might be!

Date:

Astronomy

May. 27, 2013 Rise Set
Actual Time 5:48 AM HST 7:07 PM HST
Civil Twilight 5:24 AM HST 7:32 PM HST
Nautical Twilight 4:55 AM HST 8:01 PM HST
Astronomical Twilight 4:25 AM HST 8:31 PM HST
Moon 10:05 PM HST (5/27) 8:33 AM HST (5/27)
Length of Visible Light 14h 07m
Length of Day
13h 18m
Waning Gibbous, 89% of the Moon is Illuminated
May 27
Waning Gibbous
May 31
Last Quarter
Jun 8
New
Jun 16
First Quarter
Jun 23
Full

Hourly Weather History & Observations

Time (HST) Temp. Heat Index Dew Point Humidity Pressure Visibility Wind Dir Wind Speed Gust Speed Precip Events Conditions
12:31 AM 77.0 °F - 66.2 °F 69% 30.12 in 6.2 mi East 8.1 mph 17.3 mph N/A   Mostly Cloudy
12:57 AM 76.1 °F - 66.0 °F 71% 30.10 in 10.0 mi ENE 9.2 mph 17.3 mph N/A   Mostly Cloudy
1:52 AM 75.2 °F - 66.2 °F 73% 30.09 in 6.2 mi East 11.5 mph 18.4 mph N/A   Scattered Clouds
1:57 AM 75.7 °F - 66.9 °F 74% 30.08 in 10.0 mi East 8.1 mph 17.3 mph N/A   Scattered Clouds
2:57 AM 75.7 °F - 66.0 °F 72% 30.06 in 10.0 mi East 9.2 mph 19.6 mph N/A   Scattered Clouds
3:57 AM 75.4 °F - 66.9 °F 75% 30.06 in 10.0 mi Variable 3.5 mph - N/A   Mostly Cloudy
4:57 AM 75.2 °F - 66.9 °F 75% 30.06 in 10.0 mi ENE 8.1 mph 18.4 mph N/A   Partly Cloudy
5:24 AM 75.2 °F - 64.4 °F 69% 30.07 in 6.2 mi ENE 6.9 mph 18.4 mph N/A   Mostly Cloudy
5:52 AM 75.2 °F - 64.4 °F 69% 30.08 in 10.0 mi East 10.4 mph - N/A   Mostly Cloudy
5:57 AM 75.0 °F - 64.9 °F 71% 30.06 in 10.0 mi East 10.4 mph - N/A   Mostly Cloudy
6:48 AM 75.2 °F - 64.4 °F 69% 30.09 in 6.2 mi East 10.4 mph - N/A   Mostly Cloudy
6:57 AM 77.5 °F - 64.9 °F 65% 30.08 in 10.0 mi Variable 5.8 mph 18.4 mph N/A   Mostly Cloudy
7:21 AM 77.0 °F - 66.2 °F 69% 30.10 in 6.2 mi ENE 10.4 mph - N/A   Mostly Cloudy
7:57 AM 79.0 °F - 66.0 °F 64% 30.09 in 10.0 mi ENE 10.4 mph 19.6 mph N/A   Mostly Cloudy
8:57 AM 79.0 °F - 66.0 °F 64% 30.10 in 10.0 mi ENE 8.1 mph 16.1 mph N/A   Mostly Cloudy
9:14 AM 80.6 °F 82.7 °F 66.2 °F 61% 30.12 in 6.2 mi East 9.2 mph - N/A   Mostly Cloudy
9:57 AM 82.4 °F 84.8 °F 66.9 °F 59% 30.10 in 10.0 mi ENE 9.2 mph - N/A   Mostly Cloudy
10:00 AM - - - N/A% - - North - - N/A   Unknown
10:07 AM 82.4 °F 84.6 °F 66.2 °F 58% 30.11 in 6.2 mi ENE 10.4 mph 18.4 mph N/A   Mostly Cloudy
10:57 AM 82.4 °F 84.8 °F 66.9 °F 59% 30.10 in 10.0 mi ENE 9.2 mph 18.4 mph N/A   Mostly Cloudy
11:04 AM 82.4 °F 85.4 °F 68.0 °F 62% 30.11 in 6.2 mi ENE 10.4 mph - N/A   Mostly Cloudy
11:57 AM 82.4 °F 85.4 °F 68.0 °F 62% 30.09 in 10.0 mi ENE 10.4 mph 18.4 mph N/A   Mostly Cloudy
12:10 PM 84.2 °F 87.3 °F 68.0 °F 58% 30.11 in 6.2 mi ENE 11.5 mph 18.4 mph N/A   Mostly Cloudy
12:18 PM 84.2 °F 87.3 °F 68.0 °F 58% 30.11 in 6.2 mi ENE 9.2 mph 20.7 mph N/A   Mostly Cloudy
12:28 PM 84.2 °F 87.3 °F 68.0 °F 58% 30.11 in 6.2 mi ENE 11.5 mph 18.4 mph N/A   Mostly Cloudy
12:36 PM 84.2 °F 87.3 °F 68.0 °F 58% 30.10 in 6.2 mi ENE 10.4 mph 17.3 mph N/A   Scattered Clouds
12:57 PM 84.2 °F 87.3 °F 68.0 °F 58% 30.09 in 10.0 mi ENE 12.7 mph 19.6 mph N/A   Scattered Clouds
1:57 PM 86.0 °F 90.1 °F 69.1 °F 57% 30.08 in 10.0 mi ENE 9.2 mph 17.3 mph N/A   Mostly Cloudy
2:57 PM 86.0 °F 89.4 °F 68.0 °F 55% 30.06 in 10.0 mi ENE 11.5 mph 18.4 mph N/A   Partly Cloudy
3:57 PM 87.8 °F 91.4 °F 68.0 °F 52% 30.05 in 10.0 mi ENE 9.2 mph - N/A   Scattered Clouds
4:57 PM 87.8 °F 91.4 °F 68.0 °F 52% 30.05 in 10.0 mi ENE 8.1 mph 16.1 mph N/A   Partly Cloudy
5:57 PM 82.4 °F 84.8 °F 66.9 °F 59% 30.06 in 10.0 mi ENE 10.4 mph - N/A   Scattered Clouds
6:57 PM 82.4 °F 85.4 °F 68.0 °F 62% 30.07 in 10.0 mi ENE 5.8 mph - N/A   Partly Cloudy
7:57 PM 77.0 °F - 68.0 °F 74% 30.09 in 10.0 mi ENE 6.9 mph - N/A   Partly Cloudy
8:57 PM 77.0 °F - 68.0 °F 74% 30.10 in 10.0 mi ENE 8.1 mph - N/A   Mostly Cloudy
9:57 PM 75.2 °F - 69.1 °F 81% 30.12 in 10.0 mi ENE 8.1 mph - N/A   Mostly Cloudy
10:50 PM 75.2 °F - 68.0 °F 78% 30.13 in 10.0 mi East 8.1 mph - 0.00 in   Mostly Cloudy
10:57 PM 75.2 °F - 68.0 °F 78% 30.11 in 10.0 mi East 9.2 mph - 0.00 in Rain Light Rain
11:08 PM - - - N/A% 30.12 in 6.2 mi ESE 5.8 mph - 0.00 in Rain Light Rain
11:57 PM 75.2 °F - 68.0 °F 78% 30.10 in 10.0 mi East 6.9 mph - 0.00 in   Mostly Cloudy